Wind_Speed
3 3 3 4 3 3 3 3 3 3 3 3 3 2 2 2 2 2 2 2 2 3 2 2 2 3 3 3 3 3 3 3 3 3 4 4 4 4 4 5 5 5 5 6 5 6 6 6 5
4 4 4 4 3 4 3 3 3 2 2 2 2 2 2 2 2 3 3 3 3 3 3 3 3 4 4 4 3 3 3 3 3 3 4 4 4 4 4 5 5 4 5 6 6 6 6 6 7
5 4 4 4 3 4 4 3 3 2 2 2 2 2 2 3 3 3 3 4 4 4 4 4 4 4 4 4 4 3 3 3 3 3 4 4 5 5 5 5 5 5 5 5 6 7 7 7 8
6 5 4 3 3 4 3 3 3 2 2 2 2 2 2 2 3 3 3 4 4 4 5 5 5 5 5 4 4 4 4 4 4 4 4 4 5 5 5 5 5 5 6 6 7 7 8 8 9
6 5 4 3 3 3 3 3 3 3 2 2 2 2 2 3 4 4 4 4 4 4 5 5 5 5 5 5 4 4 4 4 4 5 5 5 5 5 5 6 6 6 6 7 8 8 8 9 9
6 5 4 3 3 3 3 3 2 2 1 2 2 3 3 4 4 4 4 5 5 5 5 6 5 5 4 5 5 4 4 4 4 5 5 6 6 6 6 7 7 8 8 8 9 9 9 9 10
5 5 4 3 3 3 3 2 2 1 1 2 3 3 4 4 5 5 5 5 5 5 5 5 5 5 5 5 5 5 5 5 5 5 6 6 6 7 7 7 8 8 8 9 9 10 10 10 10
5 5 4 3 3 3 3 2 2 2 2 2 3 3 4 4 5 5 5 5 5 5 5 5 5 5 5 5 5 6 6 5 6 6 6 7 7 7 7 8 8 9 9 9 10 10 10 11 11
5 4 4 3 3 3 3 2 2 2 2 2 2 2 3 4 4 5 5 5 6 6 6 6 6 6 5 5 5 6 6 6 6 6 7 7 8 8 8 8 9 9 9 10 10 11 11 12 12
4 4 3 3 4 3 2 2 2 2 2 3 2 3 4 4 4 5 5 6 6 6 6 6 6 6 6 6 6 7 7 7 7 7 8 8 9 9 9 9 9 9 10 9 9 11 11 11 12
4 3 3 4 3 3 2 2 2 2 2 3 3 4 4 5 4 4 5 6 7 7 6 6 6 6 6 6 6 7 8 7 8 8 8 9 9 10 10 10 10 10 10 10 10 11 11 11 12
5 4 4 3 3 3 2 2 3 3 3 3 4 4 4 4 4 5 6 6 7 7 6 6 6 7 7 7 7 7 8 8 8 9 9 9 10 10 10 10 11 11 11 11 11 11 11 11 12
5 4 4 4 4 4 3 3 3 3 3 4 4 5 5 5 5 6 6 6 7 7 7 7 7 7 8 8 8 8 8 8 8 9 9 9 10 10 10 10 11 11 11 12 12 12 11 11 11
5 4 4 5 5 4 4 4 4 4 4 4 5 6 6 6 6 6 7 7 7 7 7 7 8 8 8 8 9 9 8 9 9 9 9 10 10 10 10 10 11 11 12 12 12 11 11 12 12
6 6 5 6 6 6 5 5 5 6 6 6 6 6 7 7 6 7 7 8 8 8 8 8 8 9 9 8 9 9 9 9 9 9 10 10 10 10 10 10 10 11 11 11 12 12 12 12 12
7 7 6 6 6 6 6 6 6 7 7 7 7 8 7 7 7 7 8 8 9 8 9 8 9 9 9 8 9 9 9 9 10 10 10 10 11 10 10 10 10 11 11 11 11 12 13 12 12
8 8 8 7 7 7 7 7 7 8 8 8 8 8 8 8 9 8 9 9 9 9 9 9 9 9 10 9 9 9 10 10 10 11 11 11 11 11 11 11 11 11 11 11 12 12 13 12 12
9 9 9 9 8 8 8 8 8 8 9 9 9 9 9 9 9 9 9 9 9 9 10 10 9 9 10 10 10 10 11 11 11 11 12 12 12 12 12 12 12 12 12 12 12 12 13 12 12
10 10 10 10 10 10 10 9 10 10 10 10 10 10 10 10 10 11 10 10 10 10 10 10 10 10 10 11 11 11 11 12 12 12 12 12 12 13 12 12 12 12 12 12 12 12 13 12 12
11 11 11 11 12 12 11 11 11 12 12 12 12 12 12 11 12 12 12 12 12 11 11 11 11 11 11 11 11 11 12 13 13 12 12 12 13 12 12 12 13 13 13 13 12 12 12 13 13
12 13 13 13 13 13 14 13 13 13 13 13 13 13 13 12 13 13 13 13 13 13 12 12 12 13 13 13 13 12 13 13 13 13 12 12 13 13 12 12 12 12 12 13 12 12 13 13 14
13 13 14 14 14 14 15 14 13 13 13 13 13 14 14 13 14 13 13 13 14 14 14 13 14 14 14 14 14 14 14 14 14 13 12 12 13 13 13 12 12 12 12 13 13 13 14 14 14
13 14 14 15 15 15 15 15 13 13 13 13 13 14 14 14 14 14 14 14 15 15 14 14 14 14 15 15 14 15 15 15 15 14 13 13 14 14 14 13 13 12 13 13 13 14 14 14 15
14 15 15 15 16 15 15 15 13 13 13 13 14 14 14 14 15 15 15 15 15 15 15 15 15 15 16 15 15 15 16 16 15 15 14 15 15 15 15 14 14 14 14 14 14 14 15 15 16
14 15 16 16 15 15 15 15 14 14 14 14 14 15 15 15 15 15 16 16 16 16 16 16 16 16 16 16 16 16 16 17 17 16 16 16 16 16 15 15 15 15 15 15 15 15 16 16 16
14 15 16 17 16 16 16 16 16 16 16 16 16 16 16 16 16 16 16 17 17 16 16 16 16 17 17 17 17 17 17 17 18 17 16 16 17 16 16 16 16 16 16 16 16 16 17 17 17
15 16 17 18 18 18 17 17 16 16 16 16 16 17 16 16 16 16 16 16 17 17 17 17 18 18 18 18 18 18 18 18 19 18 18 17 18 18 18 17 17 17 17 17 17 17 17 17 18
16 17 18 19 20 19 18 17 16 17 17 17 17 17 17 17 17 17 17 18 18 18 18 18 19 19 19 19 19 19 19 19 19 18 18 18 19 19 19 18 18 18 18 19 18 19 19 18 19
17 18 19 20 20 20 19 17 17 17 18 18 18 18 18 18 18 18 19 19 19 19 18 18 19 20 20 20 19 19 20 20 19 19 19 19 19 19 19 19 19 19 19 19 20 20 20 20 20
18 18 19 20 20 21 21 19 18 19 19 19 19 19 19 19 19 20 20 20 20 20 19 19 20 20 21 20 20 21 21 21 21 20 19 19 20 20 20 20 20 20 21 21 21 21 21 22 22
Wind_Direction
315 308 308 312 314 316 321 308 300 298 303 308 312 317 320 329 335 308 292 267 267 277 283 291 292 298 305 309 308 302 301 297 288 286 281 263 257 260 266 267 266 268 266 264 264 257 250 246 251
306 298 292 303 311 323 318 310 302 307 313 322 319 327 332 337 327 311 297 276 274 273 273 281 283 285 294 299 299 303 301 296 291 290 285 270 264 262 267 272 270 272 271 266 267 264 259 252 255
307 295 289 294 300 308 304 305 313 322 325 319 313 323 338 337 318 307 294 286 276 273 273 275 274 279 288 292 295 296 299 298 296 292 286 276 271 268 267 270 272 274 274 273 271 270 271 261 257
303 290 279 283 298 301 296 293 301 302 300 292 290 307 327 320 316 313 298 287 285 285 281 275 274 276 278 281 287 290 293 296 295 293 289 279 270 264 263 268 270 272 273 272 272 272 273 269 264
305 289 276 282 296 297 296 299 300 292 285 282 286 308 324 317 307 303 299 294 288 289 287 286 278 276 278 281 282 290 291 294 293 292 286 279 270 265 262 264 268 269 271 274 273 269 269 269 265
302 295 287 291 309 306 307 310 306 299 291 305 305 309 313 315 306 299 301 296 289 289 290 288 282 279 285 283 281 283 286 288 287 287 286 281 273 270 270 267 265 267 266 266 268 268 266 267 264
306 307 296 292 300 309 308 316 320 324 313 315 312 307 308 308 309 303 300 300 293 288 287 284 282 280 281 279 279 280 281 280 281 281 281 279 274 270 268 268 270 269 269 266 265 265 264 266 265
311 309 304 290 295 303 309 323 329 338 331 320 316 311 312 312 310 305 301 302 302 296 292 284 280 278 278 280 279 277 279 284 281 279 278 276 274 269 267 267 268 268 270 269 267 265 263 264 266
316 307 304 299 305 312 318 329 341 345 334 327 318 319 319 319 318 313 311 310 305 300 295 289 285 282 279 277 278 276 277 283 287 284 279 277 276 273 269 267 266 267 269 270 267 264 264 263 264
311 307 305 298 305 305 318 327 337 337 327 325 322 317 324 326 321 317 313 311 306 302 296 287 286 285 278 272 276 277 278 281 283 284 281 278 277 274 269 267 266 266 265 266 266 263 264 264 261
304 295 295 296 298 299 308 318 335 335 338 337 332 326 322 324 320 321 321 318 311 305 299 294 282 279 278 273 275 278 277 280 282 283 281 280 280 279 274 267 265 264 264 264 267 270 266 264 263
296 285 284 289 290 294 302 309 325 327 333 332 326 320 317 318 319 324 323 321 315 303 294 293 289 279 276 276 276 279 280 281 281 283 282 281 282 283 280 273 267 266 266 265 267 270 270 267 265
283 284 280 280 279 283 298 304 308 317 323 323 322 322 324 325 324 321 319 318 318 305 296 293 290 287 280 274 275 278 281 281 282 283 280 280 281 282 281 276 270 269 269 270 269 270 266 265 265
278 279 280 275 269 276 288 301 303 305 310 314 316 315 318 318 318 318 317 316 315 312 303 294 289 285 282 275 272 272 276 280 282 283 281 280 280 282 283 280 274 270 269 270 270 268 267 266 264
273 272 272 271 268 275 287 296 302 302 302 301 304 305 305 308 309 309 312 314 313 311 307 299 294 288 285 281 278 273 275 279 281 282 282 281 280 281 283 281 278 273 270 268 268 269 269 268 264
272 273 272 273 271 280 288 292 294 299 300 296 297 297 297 300 301 304 309 311 312 311 306 301 297 293 288 285 281 276 275 277 280 281 282 281 281 280 281 281 279 274 270 271 271 271 269 270 267
269 270 269 270 275 279 286 288 288 290 293 294 292 292 293 293 295 300 304 307 309 308 304 299 296 292 289 284 280 277 277 277 278 279 278 279 280 279 279 280 278 276 274 274 276 274 272 272 269
270 271 271 270 273 276 281 285 286 289 291 293 290 290 292 292 294 298 301 304 306 304 301 298 294 292 289 286 284 280 278 277 278 279 277 276 277 277 278 280 277 275 273 275 279 277 272 270 267
270 272 273 270 272 276 280 282 285 287 289 291 288 288 291 292 292 295 296 299 300 298 296 297 296 293 291 289 287 285 281 279 279 279 279 278 280 280 278 279 278 275 273 274 278 277 272 269 269
270 272 274 273 273 275 279 281 284 286 286 286 287 287 288 288 288 291 293 296 297 295 293 293 294 292 290 290 290 288 285 281 279 279 279 277 279 278 276 276 277 276 276 274 275 273 272 270 269
269 273 273 276 277 277 279 280 282 283 284 285 285 286 287 287 286 288 290 293 294 293 292 292 293 292 289 287 288 289 288 284 282 280 276 277 281 279 273 273 273 274 274 273 273 271 272 272 270
270 272 272 275 276 277 280 280 281 284 284 284 284 284 285 285 284 287 290 290 291 291 290 291 292 294 291 289 288 286 287 285 283 280 275 275 280 281 274 273 272 273 273 274 273 272 272 271 270
271 273 272 275 276 278 281 285 284 285 283 284 284 284 285 285 286 288 290 290 290 290 289 291 293 294 294 292 290 285 284 284 281 278 274 275 277 278 276 273 274 275 275 276 275 275 274 274 271
272 273 274 277 278 279 282 284 285 285 287 287 287 285 285 285 286 288 289 289 289 289 289 291 293 294 294 293 290 288 285 283 282 277 276 276 276 276 278 277 275 275 275 275 275 277 276 274 272
274 275 276 276 279 282 283 283 286 284 283 285 287 284 283 285 286 288 288 288 289 289 288 289 292 295 295 293 290 287 285 282 281 277 275 274 273 275 277 278 277 275 276 275 275 276 274 273 273
274 276 277 279 281 283 283 284 286 284 282 283 284 284 284 286 288 288 287 287 287 287 288 289 291 295 296 295 294 287 285 281 278 276 274 273 273 276 277 275 274 274 274 274 275 276 275 274 273
274 275 278 280 284 283 284 285 283 283 282 282 284 284 284 286 287 288 288 287 287 288 289 289 290 292 295 296 294 289 284 282 278 275 273 275 275 274 274 273 273 272 273 274 275 276 275 274 274
276 277 277 280 284 285 284 285 286 284 284 283 282 283 284 286 287 288 289 288 288 288 289 291 292 293 295 296 293 289 285 283 281 278 274 275 275 274 273 273 274 273 272 273 274 275 275 274 274
278 279 279 280 282 285 286 285 286 285 284 282 281 282 283 286 287 288 292 291 288 287 289 292 293 293 295 296 293 289 287 283 281 281 277 276 276 275 274 274 274 274 274 274 274 274 274 274 273
279 282 281 279 280 282 286 287 284 283 285 285 283 284 284 285 287 289 290 291 290 289 288 291 293 294 295 294 292 290 288 286 283 281 280 277 276 275 274 274 274 274 275 275 275 274 274 274 274
Height
5858 5857 5858 5858 5859 5858 5857 5857 5856 5856 5856 5855 5855 5855 5855 5855 5856 5858 5856 5855 5855 5855 5855 5855 5855 5855 5855 5854 5854 5854 5854 5854 5854 5855 5855 5855 5856 5856 5857 5857 5857 5858 5858 5859 5860 5860 5860 5861 5862
5857 5857 5858 5858 5857 5857 5857 5856 5856 5856 5855 5855 5855 5855 5855 5854 5855 5855 5854 5854 5854 5854 5854 5854 5854 5854 5854 5854 5854 5853 5853 5853 5854 5854 5854 5854 5855 5855 5856 5856 5856 5857 5857 5858 5858 5859 5859 5860 5861
5857 5857 5858 5857 5857 5857 5857 5856 5856 5855 5855 5855 5855 5855 5854 5854 5854 5854 5854 5853 5854 5854 5854 5854 5853 5853 5853 5853 5853 5853 5853 5853 5853 5853 5853 5853 5854 5854 5855 5855 5855 5856 5856 5857 5857 5858 5858 5859 5859
5857 5857 5857 5857 5856 5857 5856 5856 5855 5855 5855 5855 5855 5854 5854 5854 5854 5853 5853 5853 5853 5853 5853 5853 5852 5852 5852 5852 5852 5852 5852 5852 5852 5852 5852 5852 5852 5853 5853 5854 5854 5855 5855 5856 5856 5857 5857 5857 5858
5856 5856 5856 5856 5856 5856 5855 5855 5855 5855 5854 5854 5854 5854 5853 5853 5853 5853 5853 5852 5852 5852 5852 5852 5851 5851 5851 5851 5851 5851 5851 5851 5851 5851 5851 5851 5851 5852 5852 5853 5853 5853 5854 5854 5854 5855 5855 5856 5856
5856 5856 5856 5855 5855 5855 5855 5855 5854 5854 5854 5854 5854 5853 5853 5853 5853 5852 5852 5852 5852 5851 5851 5850 5850 5850 5850 5850 5850 5850 5850 5850 5850 5850 5849 5849 5850 5850 5850 5851 5851 5852 5852 5852 5853 5853 5853 5854 5854
5856 5855 5855 5855 5855 5855 5855 5854 5854 5853 5853 5853 5853 5853 5852 5852 5852 5851 5851 5851 5851 5850 5850 5849 5849 5849 5849 5849 5848 5848 5848 5848 5848 5848 5848 5848 5848 5848 5849 5849 5850 5850 5850 5850 5851 5851 5851 5851 5852
5855 5856 5854 5854 5855 5855 5854 5854 5853 5853 5853 5853 5852 5852 5852 5852 5851 5851 5850 5850 5849 5849 5848 5848 5848 5848 5848 5848 5847 5847 5847 5847 5847 5847 5847 5847 5847 5847 5847 5847 5848 5848 5848 5848 5848 5849 5849 5849 5849
5855 5856 5854 5854 5854 5854 5854 5853 5853 5853 5852 5852 5852 5851 5851 5851 5850 5850 5849 5849 5848 5847 5847 5847 5846 5846 5846 5846 5846 5846 5846 5846 5846 5845 5845 5845 5845 5845 5845 5845 5846 5846 5846 5846 5846 5846 5846 5847 5847
5855 5855 5854 5854 5854 5854 5853 5853 5853 5852 5852 5851 5851 5851 5850 5850 5849 5849 5848 5848 5847 5846 5845 5845 5845 5845 5845 5844 5845 5844 5844 5844 5844 5844 5844 5844 5843 5843 5843 5843 5843 5843 5843 5843 5843 5843 5844 5844 5844
5854 5854 5854 5853 5853 5853 5853 5853 5852 5852 5852 5851 5850 5850 5849 5849 5848 5848 5847 5846 5846 5845 5844 5844 5843 5843 5843 5843 5843 5843 5842 5842 5842 5842 5842 5842 5841 5841 5841 5841 5841 5841 5841 5841 5841 5841 5841 5841 5841
5853 5853 5853 5853 5852 5852 5852 5852 5852 5851 5851 5850 5850 5849 5849 5848 5847 5847 5846 5845 5844 5844 5843 5842 5842 5841 5841 5841 5841 5841 5840 5840 5840 5840 5840 5839 5839 5839 5839 5839 5838 5838 5838 5838 5838 5838 5838 5838 5838
5853 5852 5852 5852 5852 5852 5852 5851 5851 5850 5850 5850 5849 5848 5848 5847 5846 5846 5845 5844 5843 5842 5841 5840 5840 5840 5839 5839 5839 5839 5838 5838 5838 5838 5838 5837 5837 5836 5836 5836 5836 5836 5835 5835 5835 5835 5835 5835 5835
5852 5851 5851 5851 5851 5851 5851 5851 5850 5850 5849 5849 5848 5848 5847 5846 5845 5844 5843 5842 5842 5841 5840 5839 5838 5837 5837 5837 5837 5836 5836 5836 5836 5835 5835 5835 5834 5834 5834 5833 5833 5833 5833 5832 5832 5832 5832 5832 5833
5850 5851 5851 5850 5850 5850 5850 5850 5849 5848 5848 5848 5847 5846 5845 5845 5844 5843 5842 5841 5840 5839 5838 5837 5836 5835 5835 5834 5834 5834 5834 5833 5833 5833 5832 5832 5832 5831 5831 5831 5830 5830 5830 5830 5829 5829 5829 5829 5829
5849 5849 5849 5849 5849 5849 5850 5849 5848 5847 5846 5846 5845 5844 5844 5843 5842 5841 5840 5839 5838 5837 5836 5835 5834 5833 5833 5832 5832 5831 5831 5831 5831 5830 5830 5829 5829 5829 5828 5828 5827 5827 5827 5827 5826 5826 5826 5826 5826
5847 5848 5848 5848 5847 5847 5848 5847 5846 5845 5845 5844 5843 5842 5842 5841 5840 5839 5838 5837 5836 5835 5834 5833 5832 5831 5830 5830 5829 5829 5828 5828 5828 5827 5827 5826 5826 5826 5825 5825 5824 5824 5824 5824 5823 5823 5823 5823 5823
5846 5846 5846 5846 5845 5845 5845 5845 5844 5843 5843 5842 5841 5840 5840 5839 5838 5837 5836 5835 5834 5833 5832 5831 5830 5829 5828 5827 5827 5826 5826 5825 5825 5824 5823 5823 5823 5822 5822 5822 5821 5821 5821 5821 5820 5820 5820 5820 5820
5843 5843 5843 5843 5843 5843 5843 5843 5842 5841 5840 5840 5839 5838 5837 5836 5836 5835 5834 5833 5832 5831 5829 5828 5827 5826 5826 5825 5824 5823 5822 5822 5821 5821 5820 5820 5819 5819 5819 5818 5818 5818 5818 5817 5817 5817 5817 5816 5816
5840 5841 5841 5841 5841 5841 5840 5841 5840 5839 5838 5837 5836 5835 5834 5834 5833 5832 5831 5830 5829 5828 5827 5826 5825 5824 5823 5822 5821 5820 5819 5818 5818 5817 5817 5816 5816 5815 5815 5815 5815 5814 5814 5814 5814 5814 5813 5813 5813
5838 5838 5838 5838 5838 5838 5838 5838 5837 5836 5835 5834 5833 5832 5831 5831 5830 5829 5828 5827 5826 5825 5824 5823 5821 5820 5819 5818 5818 5817 5816 5815 5814 5814 5813 5813 5813 5812 5812 5811 5811 5811 5811 5810 5810 5810 5810 5810 5809
5835 5835 5835 5835 5835 5835 5835 5835 5835 5833 5832 5831 5830 5829 5828 5827 5826 5825 5824 5823 5822 5821 5820 5819 5818 5817 5815 5814 5814 5813 5812 5811 5811 5810 5810 5809 5809 5809 5808 5808 5807 5807 5807 5807 5806 5806 5806 5806 5806
5832 5832 5832 5832 5831 5831 5831 5831 5832 5830 5829 5828 5827 5826 5825 5824 5823 5822 5821 5820 5819 5818 5816 5815 5814 5812 5811 5810 5809 5808 5808 5807 5807 5806 5806 5806 5805 5805 5804 5804 5804 5803 5803 5803 5802 5802 5802 5802 5802
5829 5829 5829 5828 5828 5829 5828 5828 5828 5827 5826 5825 5824 5823 5822 5821 5820 5819 5817 5816 5815 5814 5812 5811 5810 5808 5807 5806 5805 5804 5803 5803 5802 5802 5802 5802 5801 5801 5800 5800 5800 5799 5799 5799 5798 5798 5798 5797 5797
5826 5826 5826 5825 5825 5825 5824 5824 5825 5823 5822 5821 5820 5819 5818 5817 5816 5815 5814 5812 5811 5810 5809 5807 5806 5804 5803 5801 5800 5800 5799 5799 5798 5798 5798 5798 5797 5797 5796 5796 5795 5795 5795 5794 5794 5794 5793 5793 5793
5822 5822 5823 5822 5822 5821 5820 5820 5821 5820 5819 5818 5817 5816 5815 5814 5813 5811 5810 5808 5807 5806 5804 5803 5802 5800 5799 5798 5796 5795 5795 5794 5794 5793 5793 5793 5793 5792 5792 5791 5791 5790 5790 5790 5789 5789 5789 5788 5788
5819 5818 5818 5818 5817 5817 5817 5816 5816 5815 5814 5814 5813 5812 5811 5810 5809 5807 5806 5804 5803 5801 5800 5799 5798 5796 5795 5793 5792 5791 5790 5789 5789 5789 5788 5788 5788 5787 5787 5787 5786 5786 5785 5785 5785 5784 5784 5783 5783
5815 5814 5814 5813 5812 5812 5812 5812 5812 5811 5810 5809 5809 5808 5807 5806 5804 5803 5801 5800 5798 5797 5796 5794 5793 5792 5790 5789 5787 5786 5785 5784 5784 5783 5783 5783 5782 5782 5782 5781 5781 5781 5780 5780 5779 5779 5778 5778 5778
5811 5810 5809 5808 5808 5807 5807 5810 5808 5806 5805 5805 5804 5803 5802 5801 5800 5798 5797 5795 5794 5792 5791 5790 5788 5787 5785 5784 5782 5781 5780 5779 5779 5778 5778 5777 5777 5776 5776 5776 5776 5775 5775 5774 5774 5773 5773 5772 5772
5806 5805 5804 5804 5803 5802 5802 5806 5802 5801 5800 5799 5799 5798 5797 5796 5795 5794 5792 5790 5789 5787 5786 5785 5783 5782 5780 5779 5777 5776 5775 5774 5773 5773 5772 5772 5771 5771 5770 5770 5769 5769 5769 5768 5768 5767 5766 5766 5765